Location: Pilipovskiye Korichintsy
(49.1833°N, 27.4667°E)
Time: 21:31:08
(UTC+00:00)

USA 215 - Pass Details

Date: 14 July 2020
Orbit: 1102 x 1106 km, 123.0° (Epoch: 08 August)

Event Time Altitude Azimuth Distance (km) Brightness Sun altitude
Rises 01:30:10 0° 88° (E) 3,922 6.9 -7.1°
Reaches altitude 10° 01:32:43 10° 84° (E) 2,964 6.4 -6.8°
Maximum altitude 01:38:57 49° 12° (NNE) 1,391 4.3 -6.1°
Drops below altitude 10° 01:45:12 10° 300° (WNW) 2,966 5.4 -5.3°
Sets 01:47:45 0° 295° (WNW) 3,924 5.9 -5.0°
